Content
SEND FEEDBACK

Daily
Averages
Monthly
Summary
United States of America

BRIDGEWATER, SOUTH DAKOTA


Home > North America > United States > South Dakota
Elevation: 1419 feet     Latitude: 43 33N     Longitude: 097 30W

WEATHER
 
SELECT A DAY
Number of Records: 241,053;   Date Range: 1/1/95 - 9/20/14
 
SHARE

PRINT THIS DATA

[ ← Previous Day ]
WEATHER ALMANAC - OCTOBER 25, 2013
[ Next Day → ]
[ °C ]   °F
Weather ElementAverageHighLow
Temperature46.2 °F66 °F (4:53 pm)25 °F (2:53 am)
Dewpoint35.3 °F42.1 °F (1:53 pm)23 °F (1:53 am)
Humidity69 %92 % (2:53 am)40 % (4:53 pm)
Barometer30.12 in30.35 in (1:53 am)29.93 in (6:53 pm)
Wind Speed9.3 mph16.1 mph (1:53 pm)
Wind Gust25.3 mph (2:53 pm)
Weather ElementAverage
Visibility10 mi
Wind DirectionSSW (202.6 °)

Weather ElementTotal
Precipitation---
Heating Degree Days19.5 (Base 65)
Averaged from 23 records on October 25, 2013
WEATHER CONDITIONS BREAKOUT
WIND DIRECTION BREAKOUT
WEATHER BY HOUR - OCTOBER 25, 2013
[ °C ]   °F
Local TimeTemperatureDewpointHumidityBarometerVisibilityWind DirectionWind SpeedGust SpeedPrecipitationEventsConditions
1:53 AM28.0 °F23.0 °F81 %30.35 in10.0 miCalmClear
2:53 AM25.0 °F23.0 °F92 %30.35 in10.0 miESE (120°)4.6 mphClear
3:53 AM26.1 °F24.1 °F92 %30.32 in10.0 miESE (120°)5.8 mphMostly Cloudy
4:53 AM28.0 °F25.0 °F88 %30.30 in10.0 miSSE (160°)6.9 mphClear
5:53 AM28.9 °F26.1 °F89 %30.28 in10.0 miSouth (170°)6.9 mphMostly Cloudy
6:53 AM28.9 °F26.1 °F89 %30.25 in10.0 miSSE (160°)8.1 mphClear
7:53 AM32.0 °F28.9 °F88 %30.23 in10.0 miSouth (180°)6.9 mphClear
8:53 AM35.1 °F32.0 °F89 %30.21 in10.0 miSouth (180°)9.2 mphClear
9:53 AM39.9 °F36.0 °F86 %30.19 in10.0 miSSW (200°)6.9 mphClear
10:53 AM46.9 °F37.9 °F71 %30.17 in10.0 miSSW (210°)9.2 mphClear
11:53 AM53.1 °F39.9 °F61 %30.13 in10.0 miSSW (210°)9.2 mphClear
12:53 PM55.9 °F39.9 °F55 %30.10 in10.0 miSSW (200°)13.8 mphClear
1:53 PM61.0 °F42.1 °F50 %30.04 in10.0 miSW (230°)16.1 mph20.7 mphClear
2:53 PM64.0 °F41.0 °F43 %30.01 in10.0 miSSW (210°)13.8 mph25.3 mphClear
3:53 PM64.9 °F41.0 °F42 %29.99 in10.0 miSW (230°)12.7 mph21.9 mphClear
4:53 PM66.0 °F41.0 °F40 %29.96 in10.0 miSW (220°)15.0 mph21.9 mphClear
5:53 PM64.0 °F41.0 °F43 %29.94 in10.0 miSW (230°)10.4 mphClear
6:53 PM57.9 °F42.1 °F56 %29.93 in10.0 miSSW (200°)8.1 mphClear
7:53 PM55.9 °F42.1 °F60 %29.96 in10.0 miWSW (240°)6.9 mphClear
8:53 PM54.0 °F41.0 °F62 %29.96 in10.0 miWSW (240°)10.4 mphClear
9:53 PM52.0 °F42.1 °F69 %29.99 in10.0 miWNW (300°)10.4 mphClear
10:53 PM51.1 °F39.9 °F66 %30.01 in10.0 miNNW (330°)12.7 mph23.0 mphClear
11:53 PM45.0 °F37.0 °F74 %30.02 in10.0 miNW (320°)10.4 mphClear
Hourly data recorded from KMHE, located miles away from Bridgewater, South Dakota







STORIES FROM OUR PARTNERS